[[{"header":{"parameterUnit":"m.s-1","parameterCategory":1,"la1":30.2991,"la2":30.254,"lo1":-89.0895,"lo2":-89.0444,"dy":0.0017,"dx":0.0017,"nx":28,"ny":28,"refTime":"2025-12-23T03:00:00:Z","depth":0,"parameterNumber":2,"parameterNumberName":"U-component_of_WINDS"},"data":[0,0,0,0,0,0,0,0,0,0,0,0,0,0,0,0,0,0,0,0,0,0,0,0,0,0,0,0,0,0,0,0,0,0,0,0,0,0,0,0,0,0,0,0,0,0,0,0,0,0,0,0,0,0,0,0,0,0,-1.3112,-1.3112,0,-1.3134,-1.3135,-1.3135,-1.3085,-1.3084,-1.3082,-1.308,-1.3103,-1.3105,-1.3107,0,0,0,0,0,0,0,0,0,0,0,0,0,-1.3026,-1.3028,-1.3112,-1.3112,-1.3113,-1.3134,-1.3135,-1.3135,-1.3085,-1.3083,-1.3082,-1.308,-1.3102,-1.3104,-1.3107,0,0,0,0,0,0,0,0,0,0,0,0,0,-1.3057,-1.3028,-1.3112,-1.3091,-1.3089,-1.3134,-1.3135,-1.3135,-1.3086,-1.3083,-1.3081,-1.3079,-1.3101,-1.3104,-1.3107,-1.3174,0,0,-1.3117,-1.3118,0,0,0,0,0,0,0,0,-1.3056,-1.3061,-1.3093,-1.3092,-1.309,-1.3105,-1.3112,-1.3148,-1.3086,-1.3087,-1.308,-1.3078,-1.3105,-1.3108,-1.3117,-1.3175,-1.3176,-1.3117,-1.3119,-1.312,-1.3121,0,0,0,0,0,0,0,-1.3054,-1.3059,-1.3121,-1.3094,-1.3092,-1.308,-1.3081,-1.3119,-1.3109,-1.3087,-1.3083,-1.3087,-1.3104,-1.3114,-1.3117,-1.3177,-1.3117,-1.312,-1.3122,-1.3123,-1.3291,-1.3294,0,0,0,0,0,0,-1.3054,-1.3058,-1.312,-1.3121,-1.3067,-1.3083,-1.3085,-1.3102,-1.3109,-1.3107,-1.3089,-1.3084,-1.311,-1.3114,-1.3118,-1.3197,-1.312,-1.3123,-1.3125,-1.3289,-1.3292,-1.3295,0,0,0,0,0,0,-1.3052,-1.306,-1.3119,-1.3089,-1.3095,-1.3087,-1.3107,-1.3104,-1.3114,-1.311,-1.3108,-1.3101,-1.3108,-1.3114,-1.3161,-1.3197,-1.3124,-1.3127,-1.3285,-1.329,-1.3293,-1.3356,0,0,0,0,0,0,-1.305,-1.306,-1.3085,-1.309,-1.3097,-1.3162,-1.3109,-1.3106,-1.312,-1.3115,-1.3121,-1.312,-1.3107,-1.3156,-1.3164,-1.32,-1.313,-1.3282,-1.3287,-1.3292,-1.335,-1.3361,-1.3371,0,0,0,0,0,-1.3047,-1.3102,-1.3087,-1.3095,-1.3129,-1.3164,-1.3168,-1.3152,-1.3123,-1.3149,-1.3146,-1.312,-1.3192,-1.3162,-1.317,-1.3207,-1.328,-1.3286,-1.3292,-1.3346,-1.3359,-1.337,0,0,0,0,0,0,-1.3102,-1.3102,-1.3085,-1.3143,-1.3154,-1.3156,-1.3187,-1.3167,-1.3186,-1.318,-1.3159,-1.3161,-1.3213,-1.3214,-1.3181,-1.3273,-1.3231,-1.3239,-1.3269,-1.3282,-1.3292,-1.329,-1.3132,0,0,0,0,0,-1.312,-1.3149,-1.3148,-1.3199,-1.3205,-1.3196,-1.321,-1.3197,-1.3208,-1.3212,-1.3212,-1.3223,-1.3248,-1.3265,-1.3288,-1.3351,-1.3351,-1.338,-1.3391,-1.3399,-1.3406,-1.3439,-1.3452,-1.3314,-1.3314,-1.3314,0,0,-1.3159,-1.3163,-1.3182,-1.321,-1.3217,-1.3247,-1.32,-1.3234,-1.3256,-1.3217,-1.3262,-1.3263,-1.3273,-1.3329,-1.3353,-1.3332,-1.3444,-1.3406,-1.3413,-1.3415,-1.3446,-1.346,-1.3471,-1.3318,-1.3317,-1.3316,0,0,-1.3245,-1.3251,-1.3295,-1.3303,-1.3314,-1.3307,-1.3318,-1.3323,-1.3322,-1.3367,-1.3338,-1.3364,-1.3408,-1.3417,-1.3427,-1.3518,-1.3494,-1.3526,-1.3578,-1.3611,-1.3622,-1.3632,-1.3664,-1.3676,-1.3533,-1.3533,-1.3533,0,-1.3292,-1.3337,-1.3319,-1.3355,-1.3368,-1.3335,-1.3379,-1.3387,-1.3405,-1.3415,-1.3391,-1.3446,-1.3451,-1.3508,-1.353,-1.3539,-1.355,-1.3525,-1.3622,-1.3631,-1.364,-1.3671,-1.3683,-1.3536,-1.3536,-1.3536,-1.3535,0,-1.3394,-1.3426,-1.3459,-1.3478,-1.3495,-1.3534,-1.3523,-1.3542,-1.3527,-1.3523,-1.3569,-1.3574,-1.3597,-1.361,-1.3596,-1.3665,-1.3652,-1.3626,-1.3583,-1.3657,-1.3686,-1.3697,-1.3542,-1.354,-1.3539,-1.3538,0,0,-1.3515,-1.3524,-1.3536,-1.3545,-1.3555,-1.3579,-1.3617,-1.364,-1.3657,-1.3671,-1.3703,-1.3741,-1.3716,-1.3728,-1.3715,-1.3744,-1.3815,-1.3714,-1.3714,-1.3733,-1.3892,-1.3912,-1.3926,-1.38,-1.3802,-1.3804,-1.3891,0,-1.36,-1.3666,-1.3652,-1.3717,-1.3746,-1.3715,-1.3748,-1.3758,-1.3755,-1.3779,-1.3776,-1.3803,-1.3769,-1.3776,-1.3803,-1.3801,-1.3847,-1.3795,-1.3829,-1.3831,-1.3827,-1.394,-1.3961,-1.4043,-1.3902,-1.3904,-1.3905,0,-1.3708,-1.3727,-1.3795,-1.3801,-1.3813,-1.3843,-1.3863,-1.3887,-1.3897,-1.3893,-1.3907,-1.3888,-1.3926,-1.3884,-1.3936,-1.39,-1.3913,-1.3915,-1.3917,-1.392,-1.3872,-1.3946,-1.4069,-1.4081,-1.3923,-1.3921,-1.392,0,-1.3789,-1.3831,-1.3878,-1.3886,-1.3894,-1.3916,-1.392,-1.3929,-1.3944,-1.3962,-1.3971,-1.3993,-1.4005,-1.4022,-1.401,-1.398,-1.4064,-1.402,-1.4062,-1.4062,-1.408,-1.4079,-1.4207,-1.409,-1.4089,-1.4089,-1.4089,0,-1.3886,-1.3929,-1.3914,-1.3943,-1.399,-1.3973,-1.402,-1.4021,-1.4029,-1.4056,-1.4031,-1.4058,-1.404,-1.4065,-1.4056,-1.41,-1.4106,-1.4104,-1.4101,-1.4106,-1.4106,-1.4114,-1.4108,-1.4092,-1.4092,-1.4091,-1.409,0,-1.3985,-1.3976,-1.4025,-1.4029,-1.4031,-1.4066,-1.4069,-1.4095,-1.4091,-1.4127,-1.4134,-1.4127,-1.4156,-1.4145,-1.4176,-1.4169,-1.4226,-1.4216,-1.4223,-1.422,-1.4262,-1.4258,-1.4399,-1.4417,-1.4288,-1.4289,-1.429,0,-1.4047,-1.4079,-1.4087,-1.4104,-1.4111,-1.4139,-1.4154,-1.4139,-1.4156,-1.4171,-1.4195,-1.4222,-1.4242,-1.4289,-1.4286,-1.4309,-1.4299,-1.4347,-1.4303,-1.4307,-1.43,-1.4298,-1.4301,-1.4356,-1.4358,-1.4359,-1.436,0,-1.4158,-1.4153,-1.4176,-1.4199,-1.4218,-1.4234,-1.4249,-1.4264,-1.425,-1.427,-1.4299,-1.4315,-1.4346,-1.4373,-1.4394,-1.4398,-1.4377,-1.4374,-1.4385,-1.439,-1.4393,-1.4392,-1.4247,-1.4371,-1.437,-1.4369,-1.4368,-1.4368,-1.424,-1.4268,-1.4278,-1.4305,-1.4314,-1.4328,-1.4354,-1.4353,-1.4377,-1.4401,-1.4391,-1.4424,-1.4434,-1.446,-1.4468,-1.4494,-1.4475,-1.449,-1.4494,-1.4498,-1.4504,-1.4389,-1.4497,-1.4497,-1.4497,-1.4496,-1.4496,0,-1.435,-1.4355,-1.4381,-1.4402,-1.4423,-1.4402,-1.4417,-1.4436,-1.4466,-1.4477,-1.4498,-1.4532,-1.4557,-1.4557,-1.4581,-1.4602,-1.4593,-1.4609,-1.4607,-1.4608,-1.4519,-1.4508,-1.4616,-1.4616,-1.4616,-1.4616,-1.4616,-1.4616,-1.441,-1.4455,-1.4451,-1.4501,-1.4506,-1.4539,-1.4549,-1.4562,-1.4571,-1.461,-1.4632,-1.4632,-1.4638,-1.4663,-1.4685,-1.4685,-1.4694,-1.4714,-1.471,-1.4626,-1.4615,-1.4603,-1.4592,-1.4716,-1.4717,-1.4797,-1.4797,-1.4798]},{"header":{"parameterUnit":"m.s-1","parameterCategory":1,"la1":30.2991,"la2":30.254,"lo1":-89.0895,"lo2":-89.0444,"dy":0.0017,"dx":0.0017,"nx":28,"ny":28,"refTime":"2025-12-23T03:00:00:Z","depth":0,"parameterNumber":3,"parameterNumberName":"V-component_of_WINDS"},"data":[0,0,0,0,0,0,0,0,0,0,0,0,0,0,0,0,0,0,0,0,0,0,0,0,0,0,0,0,0,0,0,0,0,0,0,0,0,0,0,0,0,0,0,0,0,0,0,0,0,0,0,0,0,0,0,0,0,0,-0.2445,-0.2445,0,-0.2441,-0.2441,-0.2441,-0.2415,-0.2414,-0.2414,-0.2413,-0.241,-0.2411,-0.2411,0,0,0,0,0,0,0,0,0,0,0,0,0,-0.2432,-0.2432,-0.2445,-0.2445,-0.2445,-0.2441,-0.2441,-0.2441,-0.2415,-0.2414,-0.2413,-0.2413,-0.241,-0.241,-0.2411,0,0,0,0,0,0,0,0,0,0,0,0,0,-0.2434,-0.2432,-0.2445,-0.2432,-0.243,-0.2441,-0.2441,-0.2441,-0.2415,-0.2414,-0.2413,-0.2412,-0.241,-0.241,-0.2411,-0.2435,0,0,-0.2413,-0.2414,0,0,0,0,0,0,0,0,-0.2433,-0.2434,-0.2434,-0.2433,-0.2431,-0.2427,-0.2435,-0.2439,-0.2415,-0.2421,-0.2413,-0.2412,-0.2417,-0.2417,-0.2418,-0.2435,-0.2435,-0.2414,-0.2414,-0.2414,-0.2415,0,0,0,0,0,0,0,-0.2433,-0.2434,-0.2443,-0.2434,-0.2432,-0.2426,-0.2425,-0.2436,-0.2424,-0.242,-0.2419,-0.2418,-0.2416,-0.2417,-0.2418,-0.2434,-0.2414,-0.2414,-0.2415,-0.2415,-0.2469,-0.247,0,0,0,0,0,0,-0.2435,-0.2434,-0.2444,-0.2443,-0.243,-0.2427,-0.2426,-0.243,-0.2424,-0.2422,-0.2419,-0.2417,-0.2417,-0.2417,-0.2418,-0.2444,-0.2414,-0.2415,-0.2415,-0.2469,-0.247,-0.2471,0,0,0,0,0,0,-0.2435,-0.2436,-0.2444,-0.2438,-0.2439,-0.2428,-0.2432,-0.243,-0.2432,-0.2423,-0.2421,-0.2423,-0.2416,-0.2417,-0.243,-0.2444,-0.2415,-0.2416,-0.2467,-0.2469,-0.247,-0.2499,0,0,0,0,0,0,-0.2435,-0.2436,-0.2445,-0.2439,-0.2439,-0.2457,-0.2433,-0.2431,-0.2433,-0.243,-0.2426,-0.2424,-0.2415,-0.2429,-0.2431,-0.2444,-0.2417,-0.2466,-0.2468,-0.247,-0.2496,-0.2501,-0.2505,0,0,0,0,0,-0.2434,-0.2454,-0.2445,-0.2447,-0.245,-0.2457,-0.2458,-0.2446,-0.2434,-0.2443,-0.2437,-0.2424,-0.2442,-0.2431,-0.2433,-0.2447,-0.2465,-0.2467,-0.247,-0.2494,-0.25,-0.2505,0,0,0,0,0,0,-0.2462,-0.2452,-0.2443,-0.2461,-0.246,-0.2453,-0.2464,-0.2453,-0.2455,-0.2453,-0.2439,-0.2438,-0.2454,-0.2452,-0.244,-0.2469,-0.2451,-0.2454,-0.247,-0.2475,-0.2479,-0.2479,-0.2417,0,0,0,0,0,-0.2471,-0.2477,-0.2468,-0.2485,-0.2485,-0.2474,-0.2477,-0.2469,-0.2467,-0.2467,-0.2462,-0.2462,-0.2467,-0.2471,-0.2475,-0.2496,-0.2494,-0.2506,-0.251,-0.2514,-0.2516,-0.2526,-0.2531,-0.2478,-0.2478,-0.2478,0,0,-0.2488,-0.2483,-0.2488,-0.249,-0.2489,-0.2496,-0.2474,-0.2483,-0.2488,-0.2468,-0.2481,-0.2477,-0.2476,-0.2493,-0.25,-0.2491,-0.2531,-0.2517,-0.2519,-0.252,-0.2529,-0.2534,-0.2539,-0.248,-0.2479,-0.2479,0,0,-0.2523,-0.252,-0.2533,-0.2532,-0.2529,-0.2522,-0.2525,-0.2519,-0.2516,-0.2528,-0.2513,-0.2519,-0.2529,-0.2528,-0.2529,-0.2563,-0.2551,-0.2565,-0.2587,-0.2597,-0.2601,-0.2604,-0.2616,-0.2621,-0.2568,-0.2568,-0.2568,0,-0.2545,-0.2555,-0.2542,-0.2551,-0.2552,-0.2534,-0.2547,-0.2546,-0.2545,-0.2547,-0.2537,-0.2548,-0.2546,-0.2562,-0.257,-0.2572,-0.2575,-0.2565,-0.2601,-0.2605,-0.2608,-0.2619,-0.2623,-0.2569,-0.2569,-0.2569,-0.2569,0,-0.2581,-0.2588,-0.26,-0.2598,-0.2601,-0.2612,-0.2601,-0.2605,-0.2596,-0.259,-0.2603,-0.2599,-0.2602,-0.2606,-0.2597,-0.2621,-0.2615,-0.2604,-0.2586,-0.2615,-0.2625,-0.2629,-0.2572,-0.2571,-0.257,-0.257,0,0,-0.2634,-0.2625,-0.2629,-0.2628,-0.2624,-0.2629,-0.264,-0.2642,-0.2646,-0.2646,-0.2654,-0.2662,-0.2651,-0.2652,-0.2643,-0.2652,-0.2679,-0.2639,-0.2639,-0.2646,-0.2704,-0.2713,-0.2718,-0.2671,-0.2672,-0.2672,-0.2704,0,-0.2667,-0.2684,-0.2672,-0.2691,-0.2698,-0.268,-0.2689,-0.2687,-0.2682,-0.2686,-0.268,-0.2686,-0.2671,-0.2672,-0.268,-0.2674,-0.269,-0.2672,-0.2679,-0.2679,-0.2679,-0.2723,-0.2733,-0.2763,-0.2708,-0.2709,-0.2709,0,-0.2708,-0.2709,-0.2728,-0.2722,-0.2724,-0.2732,-0.2733,-0.2738,-0.2736,-0.2731,-0.2732,-0.2721,-0.2731,-0.2713,-0.2727,-0.2714,-0.2716,-0.2714,-0.2715,-0.2715,-0.2696,-0.2724,-0.2772,-0.2776,-0.2715,-0.2715,-0.2714,0,-0.2744,-0.275,-0.2762,-0.2762,-0.2755,-0.2761,-0.2758,-0.2755,-0.2757,-0.2758,-0.2759,-0.2762,-0.2763,-0.2765,-0.2755,-0.2744,-0.277,-0.2752,-0.2766,-0.2766,-0.2772,-0.2772,-0.2821,-0.2775,-0.2774,-0.2774,-0.2774,0,-0.2782,-0.2795,-0.2778,-0.2786,-0.2799,-0.2786,-0.2799,-0.2795,-0.2792,-0.2798,-0.2783,-0.279,-0.2776,-0.2781,-0.2773,-0.2785,-0.2786,-0.2783,-0.2781,-0.2784,-0.2784,-0.2785,-0.2783,-0.2776,-0.2775,-0.2775,-0.2775,0,-0.2825,-0.2814,-0.2826,-0.2818,-0.2816,-0.2827,-0.282,-0.2826,-0.282,-0.2828,-0.2829,-0.2819,-0.2824,-0.2814,-0.2818,-0.2813,-0.2829,-0.2824,-0.283,-0.2828,-0.2843,-0.2842,-0.2894,-0.29,-0.285,-0.2851,-0.2851,0,-0.2849,-0.2858,-0.2851,-0.2854,-0.2852,-0.2857,-0.2858,-0.2846,-0.2848,-0.2846,-0.2853,-0.2856,-0.2858,-0.2867,-0.286,-0.2863,-0.2858,-0.2876,-0.2858,-0.2861,-0.2858,-0.2857,-0.2858,-0.2879,-0.288,-0.2881,-0.2881,0,-0.2894,-0.2889,-0.2891,-0.2892,-0.2895,-0.2895,-0.2894,-0.2898,-0.2884,-0.2887,-0.2892,-0.2894,-0.2897,-0.2901,-0.2902,-0.29,-0.2888,-0.2887,-0.289,-0.2894,-0.2896,-0.2895,-0.284,-0.2885,-0.2885,-0.2885,-0.2884,-0.2884,-0.2928,-0.2935,-0.2931,-0.2934,-0.2932,-0.2932,-0.2937,-0.2931,-0.2935,-0.2936,-0.2928,-0.2935,-0.2932,-0.2932,-0.293,-0.2935,-0.2927,-0.2932,-0.2934,-0.2935,-0.2937,-0.2896,-0.2936,-0.2935,-0.2935,-0.2935,-0.2935,0,-0.2972,-0.2968,-0.2972,-0.2971,-0.2973,-0.2962,-0.296,-0.2963,-0.2969,-0.2967,-0.2969,-0.2974,-0.2977,-0.2971,-0.2973,-0.2978,-0.2973,-0.2979,-0.2979,-0.2978,-0.2944,-0.2941,-0.2983,-0.2983,-0.2983,-0.2983,-0.2983,-0.2983,-0.2995,-0.3006,-0.3,-0.3009,-0.3006,-0.3011,-0.3011,-0.3011,-0.3009,-0.3015,-0.3017,-0.3013,-0.3009,-0.301,-0.3013,-0.3011,-0.3013,-0.3021,-0.3017,-0.2985,-0.2981,-0.2976,-0.2973,-0.3021,-0.3021,-0.305,-0.305,-0.3051]}]]